Weather History for Piney Island, NC

Change the Weather History Date:

Sunday, March 3, 2013

  Actual Average (KMRH) Record (KMRH)
Temperature  
Mean Temperature 40 °F -  
Max Temperature 46 °F 62 °F 70 °F (1955)
Min Temperature 35 °F 42 °F 12 °F (1980)
Degree Days  
Heating Degree Days 24    
Moisture  
Dew Point 26 °F    
Average Humidity 57    
Maximum Humidity 76    
Minimum Humidity 42    
Precipitation  
Precipitation 0.00 in - - ()
Sea Level Pressure  
Sea Level Pressure 29.89 in    
Wind  
Wind Speed 10 mph (NW)    
Max Wind Speed 15 mph    
Max Gust Speed -    
Averages and records for this station are not official NWS values.
T = Trace of Precipitation, MM = Missing Value Source: NWS Daily Summary

Daily Weather History Graph

Daily Weather History Graph

Search for Another Location

Airport:

Trip Planner

Search our weather history database for the weather conditions in past years. The results will help you decide how hot, cold, wet, or windy it might be!

Date:

Astronomy

Mar. 03, 2013 Rise Set
Actual Time 6:32 AM EST 6:03 PM EST
Civil Twilight 6:07 AM EST 6:28 PM EST
Nautical Twilight 5:37 AM EST 6:58 PM EST
Astronomical Twilight 5:08 AM EST 7:27 PM EST
Moon No Moon Rise 10:00 AM EST (3/3)
Length of Visible Light 12h 21m
Length of Day
11h 31m
Waning Gibbous, 64% of the Moon is Illuminated
Mar 3
Waning Gibbous
Mar 4
Last Quarter
Mar 11
New
Mar 19
First Quarter
Mar 27
Full

Hourly Weather History & Observations

Time (EST) Temp. Windchill Dew Point Humidity Pressure Visibility Wind Dir Wind Speed Gust Speed Precip Events Conditions
12:56 AM 42.1 °F 36.6 °F 26.1 °F 53% 29.87 in - North 9.2 mph - N/A   Overcast
1:56 AM 41.0 °F 33.9 °F 26.1 °F 55% 29.88 in - NNW 12.7 mph - N/A   Overcast
2:56 AM 39.0 °F 33.4 °F 26.1 °F 60% 29.86 in - NW 8.1 mph - N/A   Clear
3:56 AM 39.0 °F 32.8 °F 28.0 °F 65% 29.86 in - WNW 9.2 mph - N/A   Clear
4:56 AM 37.9 °F 30.9 °F 27.0 °F 65% 29.88 in - WNW 10.4 mph - N/A   Mostly Cloudy
5:56 AM 36.0 °F 30.3 °F 27.0 °F 70% 29.88 in - NW 6.9 mph - N/A   Partly Cloudy
6:56 AM 36.0 °F 28.5 °F 27.0 °F 70% 29.90 in - WNW 10.4 mph - N/A   Partly Cloudy
7:56 AM 39.0 °F 31.8 °F 28.9 °F 67% 29.91 in - NW 11.5 mph - N/A   Clear
8:56 AM 39.9 °F 32.9 °F 30.0 °F 68% 29.91 in - NNW 11.5 mph - N/A   Clear
9:56 AM 41.0 °F 34.7 °F 26.1 °F 55% 29.91 in - NW 10.4 mph - N/A   Clear
10:56 AM 42.1 °F 37.7 °F 25.0 °F 51% 29.91 in - NNW 6.9 mph - N/A   Scattered Clouds
11:56 AM 42.1 °F 36.1 °F 24.1 °F 49% 29.90 in - North 10.4 mph - N/A   Mostly Cloudy
12:56 PM 44.1 °F 38.1 °F 24.1 °F 45% 29.87 in - NNW 11.5 mph - N/A   Mostly Cloudy
1:56 PM 45.0 °F 38.2 °F 24.1 °F 44% 29.85 in - NNW 15.0 mph - N/A   Overcast
2:56 PM 44.1 °F 37.7 °F 27.0 °F 51% 29.84 in - North 12.7 mph - N/A   Overcast
3:56 PM 46.0 °F 41.0 °F 25.0 °F 44% 29.84 in - NNW 10.4 mph - N/A   Partly Cloudy
4:56 PM 46.0 °F 41.0 °F 24.1 °F 42% 29.85 in - NW 10.4 mph - N/A   Partly Cloudy
5:56 PM 44.1 °F 40.8 °F 25.0 °F 47% 29.87 in - WNW 5.8 mph - N/A   Partly Cloudy
6:56 PM 42.1 °F 37.7 °F 25.0 °F 51% 29.90 in - WNW 6.9 mph - N/A   Clear
7:56 PM 41.0 °F 36.4 °F 26.1 °F 55% 29.91 in - WNW 6.9 mph - N/A   Clear
8:56 PM 42.1 °F 37.1 °F 26.1 °F 53% 29.92 in - West 8.1 mph - N/A   Clear
9:56 PM 35.1 °F 28.6 °F 28.0 °F 76% 29.93 in - SSW 8.1 mph - N/A   Clear
10:56 PM 37.0 °F 31.6 °F 28.0 °F 70% 29.93 in - SW 6.9 mph - N/A   Clear
11:56 PM 39.9 °F 33.4 °F 26.1 °F 58% 29.94 in - NW 10.4 mph - N/A   Mostly Cloudy